AirNav   Air Wisconsin pilot careers
 
 1004 users online  

3T2 Wolfe Air Park
Manvel, Texas, USA

GOING TO MANVEL?


FAA INFORMATION EFFECTIVE 13 SEPTEMBER 2018

Location

FAA Identifier: 3T2
Lat/Long: 29-28-44.7000N / 095-19-35.6000W
29-28.745000N / 095-19.593333W
29.4790833 / -95.3265556
(estimated)
Elevation: 55 ft. / 17 m (estimated)
Variation: 06E (1985)
From city: 2 miles NE of MANVEL, TX
Time zone: UTC -5 (UTC -6 during Standard Time)
Zip code: 77578

Airport Operations

Airport use: Open to the public
Activation date: 01/1981
Control tower: no
ARTCC: HOUSTON CENTER
FSS: MONTGOMERY COUNTY FLIGHT SERVICE STATION
FOR FP FILING CALL CXO FSS 1-800-992-7433.
NOTAMs facility: CXO (NOTAM-D service available)
Attendance: DAYLIGHT HOURS
Wind indicator: yes
Segmented circle: no

Airport Communications

CTAF: 122.9
WX ASOS at LVJ (5 nm NE): 118.525 (281-992-1853)
WX AWOS-3 at AXH (8 nm W): 123.625 (281-431-6572)
WX ASOS at HOU (10 nm N): PHONE 713-847-1462
WX ASOS at SGR (19 nm NW): 118.125 (281-242-7605)

Nearby radio navigation aids

VOR radial/distance  VOR name  Freq  Var
HUBr189/10.9HOBBY VOR/DME117.1005E
VUHr292/27.1SCHOLES VOR/DME113.0006E
IAHr173/28.7HUMBLE VORTAC116.6005E
MHFr255/30.5TRINITY VOR/DME113.6007E

 
NDB name  Hdg/Dist  Freq  Var  ID
GALVESTON278/31.120608EGLS --. .-.. ...
NIXIN186/31.432605EBVP -... ...- .--.

Airport Services

Parking: hangars and tiedowns
Airframe service: MAJOR
Powerplant service: MAJOR

Runway Information

Runway 2/20

Dimensions: 2910 x 80 ft. / 887 x 24 m
Surface: turf, in good condition
RUNWAY 2  RUNWAY 20
Latitude: 29-28.529022N29-28.961888N
Longitude: 095-19.711895W095-19.474193W
Elevation: 54.0 ft.53.0 ft.
Traffic pattern: leftleft
Runway heading: 020 magnetic, 026 true200 magnetic, 206 true
Obstructions: 40 ft. trees, 188 ft. from runway, 119 ft. right of centerline, 4:1 slope to clear15 ft. road, 50 ft. from runway, 125 ft. left of centerline, 3:1 slope to clear

Airport Ownership and Management from official FAA records

Ownership: Privately-owned
Owner: WOLFE AIRPARK CIVIC CLUB INC
PO BOX 941
MANVEL, TX 77578
Phone 281-309-1959
JOHN HEITZ, CLUB PRESIDENT; KEN ECKEL VP; DAVE VONTESMAR, TREASURER.
Manager: JOHN HEITZ
8802 BELCHER ROAD
MANVEL, TX 77578
Phone 281-309-1959
FBO: ANGEL AIR SERVICES 281-309-1959.

Airport Operational Statistics

Aircraft based on the field: 75
Single engine airplanes: 74
Multi engine airplanes: 1
    
Aircraft operations: avg 44/day *
80% local general aviation
20% transient general aviation
* for 12-month period ending 31 December 2016

Additional Remarks

DITCH CROSSING RY 20 THLD.
FIRST 400 FT OF RY UNUSABLE AT EACH END DURG WET WEATHER.
FOR CD CTC HOUSTON APCH AT 281-443-5844 TO CNL IFR CALL 281-443-5888.

Instrument Procedures

There are no published instrument procedures at 3T2.

Some nearby airports with instrument procedures:

KLVJ - Pearland Regional Airport (5 nm NE)
KAXH - Houston Southwest Airport (8 nm W)
KHOU - William P Hobby Airport (10 nm N)
KEFD - Ellington Airport (12 nm NE)
T41 - La Porte Municipal Airport (18 nm NE)
KSGR - Sugar Land Regional Airport (19 nm NW)
 
Loc | Ops | Rwys | IFR | FBO | Links
Com | Nav | Svcs | Stats | Notes


 
Area around 3T2 (Wolfe Air Park)
 
Road maps at: MapQuest Bing Google
 
Aerial photo
WARNING: Photo may not be current or correct
Aerial photo of 3T2 (Wolfe Air Park)
Do you have a better or more recent aerial photo of Wolfe Air Park that you would like to share? If so, please send us your photo.

 
Sectional chart

 
Airport distance calculator
Flying to Wolfe Air Park? Find the distance to fly.

From to 3T2

Sunrise and sunset
Times for 22-Sep-2018
 Local
(UTC-5)
 Zulu
(UTC)
Morning civil twilight06:4711:47
Sunrise07:1112:11
Sunset19:1700:17
Evening civil twilight19:4100:41

Current date and time
Zulu (UTC)  22-Sep-2018 13:58:09
Local (UTC-5)  22-Sep-2018 08:58:09
 
METAR
KLVJ 
5nm NE 
221353Z AUTO 22005KT 10SM FEW080 SCT100 25/24 A2995 RMK AO2 LTG DSNT NE RAB06E18 SLP140 P0000 T02500244
KAXH 
8nm W 
221335Z AUTO 20005KT 10SM SCT023 SCT090 25/24 A2994 RMK AO2 LTG DSNT NE T02500240
KHOU 
10nm N 
221353Z 24006KT 10SM TS SCT027CB BKN075 BKN085 BKN250 26/23 A2994 RMK AO2 LTG DSNT NE TSB25 SLP143 OCNL LTGICCG NE TS NE MOV NE T02560228
KEFD 
11nm NE 
221350Z 19007KT 8SM FEW016 SCT080 BKN250 24/22 A2996
KSGR 
19nm NW 
221353Z 18007KT 10SM FEW015 FEW022 SCT120 27/23 A2993 RMK AO2 SLP135 T02670233
TAF
KHOU 
10nm N 
221125Z 2212/2312 15004KT P6SM VCSH BKN014 BKN180 FM221500 16007KT P6SM VCTS SCT025CB BKN100 TEMPO 2219/2222 VRB10G15KT 6SM TSRA BKN025CB FM230100 VRB05KT 5SM -SHRA BKN025 BKN070 OVC100 FM230400 VRB04KT P6SM BKN050 FM230900 34006KT P6SM BKN025 OVC120
KEFD 
11nm NE 
221200Z 2212/2318 17000KT 8000 -SHRA SCT015 BKN025 QNH2989INS TEMPO 2212/2214 VRB15G25KT 8000 -TSRA BKN015CB BECMG 2216/2217 20009KT 8000 -SHRA BKN025 QNH2985INS TEMPO 2218/2301 VRB15G25KT 4800 -TSRA BKN035CB BECMG 2300/2301 VRB06KT 9999 NSW BKN015 QNH2986INS TX28/2218Z TN25/2311Z
KSGR 
19nm NW 
221125Z 2212/2312 18006KT P6SM VCSH SCT025 FM221400 16007KT P6SM -SHRA VCTS SCT025CB BKN100 TEMPO 2219/2222 VRB10G15KT 6SM TSRA BKN025CB FM230200 VRB05KT 5SM -SHRA BKN025 BKN070 OVC100 FM230400 VRB04KT P6SM BKN050 FM230900 34006KT P6SM BKN025 OVC120
NOTAMs
Click for the latest NOTAMs
NOTAMs are issued by the DoD/FAA and will open in a separate window not controlled by AirNav.

 

 
 

Would you like to see your business listed on this page?

 If your business provides an interesting product or service to pilots, flight crews, aircraft, or users of the Wolfe Air Park, you should consider listing it here.  To start the listing process, click on the button below
 
Add a business
 

Other Pages about Wolfe Air Park

Update a link
 
Copyright © AirNav, LLC. All rights reserved. Privacy Policy  Contact